CZ-6A DEB, 54564

Orbit data source: Space-Track

CZ-6A DEB, 54564 is space debris in SSO originally from a launch on Fri, 11 Nov 2022 UTC launched from the Taiyaun Space Center, China (TSC). Debris objects in space refer to the collection of defunct objects orbiting the Earth. Examples of debris include non-operational satellites, rocket bodies, and fragments generated from explosions, collisions, or faulty payload assembly.

Loading next visibility...
Identifier
54564, 2022-151LQ
Orbit
SSO
Country
Flag of CNCN / PRC
Related business
Manufacturer
SAST
Mission
Spacecraft
Bus & Motor
Unknown
Mass
Unknown
Launch date (UTC)
2022-11-11 (4 years ago)
Launch vehicle
Unknown
Launch site
Taiyaun Space Center, China (TSC)
Object type
Payload
Rocket body
Debris
Shape & HBR
Unknown shape, 0.1 m
Radar Cross Section
Medium (>0.1 m² and <1 m²)

Expand to show TLE details & history
Last TLE update: 3 days ago

TLE from 3 days ago
0 CZ-6A DEB
1 54564U 22151LQ  26170.53087212  .00004294  00000-0  13000-2 0  9994
2 54564  98.7418 209.8503 0026199 279.9283  79.8949 14.42638418187897
Epoch: 2026-06-19T12:44Z
TLE epoch observation values (Epoch: 2026-06-19T12:44:27.351Z)
Latitude
0.00001°
Longitude
110.97782°
Altitude
749.509 km
Speed
7.482 km/s
True Right ascension
13h 59m 24s
True Declination
0° 00' 00"
Sunlit
Object was in full shadow at epoch
Visualization orbit readout
Latitude
Unknown
Longitude
Unknown
Altitude
Unknown
Speed
Unknown
Apparent Right ascension
Unknown
Apparent Declination
Unknown
Sunlit
N/A
Visualization observer readout
Local Sidereal Time
21:24:27
Azimuth
Unknown
Elevation
Unknown
Doppler factor
Unknown
Orbital elements
Apogee altitude
765.591 km
Perigee altitude
728.257 km
Semi-major axis
7,125.061 km
Eccentricity
0.00262
Inclination
98.7418°
RAAN
209.8503°
Arg. of periapsis
279.9283°
True anomaly
80.19063°
Mean anomaly
79.8949°
Eccentric anomaly
80.04275°
Mean motion
3.60878 °/min
Orbital period
99.76 mins
BSTAR
0.0013
Loading maneuver chart data...
Computing Atmospheric mass density...
Loading historical data...
Loading historical data...
Loading historical data...
Loading historical data...
Loading historical data...
Loading historical data...
Loading historical data...

Documentation

Showing up to 5 results
|